Location: Haliburton Scout Reserve
(45.0900°N, 78.3200°W)
Time: 19:11:23
(UTC-04:00)

STRAND 1 - Pass Details

Date: 06 April 2023
Orbit: 767 x 779 km, 98.4° (Epoch: 06 June)

Event Time Altitude Azimuth Distance (km) Brightness Sun altitude
Rises 21:41:35 0° 358° (N) 3,249 ? -19.5°
Reaches altitude 10° 21:44:45 10° 337° (NNW) 2,317 ? -20.0°
Maximum altitude 21:47:42 16° 302° (WNW) 1,939 ? -20.5°
Drops below altitude 10° 21:50:40 10° 266° (W) 2,309 ? -20.9°
Sets 21:53:49 0° 245° (WSW) 3,232 ? -21.4°
